ARCTURUS

Last updated on Fri Dec 12 2025 00:02:52 GMT+0000 (Coordinated Universal Time)

1 56371U 23060B 25345.34461682 -.00000163 00000+0 00000+0 0 9995 2 56371 2.2908 82.3346 0001258 253.5628 206.3611 1.00270533 9579
UTC large
Height (km)
Speed (km/s)
/
Latitude / Longitude
Inclination (degrees)
Orbital Period (minutes)
Azimuth
Elevation
Range (km)
Doppler Factor

Next 0 passes for location: London (51.5072 / 0.1276)

Sorry there are no passes over London.